Tracking 30923 objects as of 1-Jul-2025
HD Live streaming from Space Station
objects crossing your sky now

STARLINK-2483

Track STARLINK-2483 now!
10-day predictions
STARLINK-2483 is classified as:


NORAD ID: 48140
Int'l Code: 2021-027BA
Perigee: 553.6 km
Apogee: 555.1 km
Inclination: 53.1 °
Period: 95.6 minutes
Semi major axis: 6925 km
RCS: Unknown
Launch date: April 7, 2021
Source: United States (US)
Launch site: AIR FORCE EASTERN TEST RANGE (AFETR)
Your satellite tracking list
STARLINK-4776
Track 1 satellite(s)




NASA's NSSDC Master Catalog

Two Line Element Set (TLE):
1 48140U 21027BA  25181.47573218  .00000651  00000-0  62602-4 0  9995
2 48140  53.0547 224.4023 0001070  83.8047 276.3063 15.06397640234397
Source of the keplerian elements: AFSPC